Regional Weather Roundup
Issued by NWS Glasgow, MT

Home | Current Version | Previous Version | Text Only | Print | Product List | Glossary On
Versions: 1 2 3 4 5 6 7 8 9 10 11 12 13 14 15 16 17 18 19 20 21 22 23 24 25 26 27
000
ASUS45 KGGW 092315
RWRGGW
HOURLY REGIONAL WEATHER ROUNDUP FOR NORTHEAST MONTANA
NATIONAL WEATHER SERVICE GLASGOW MONTANA
400 PM MST FRI DEC 09 2016

NOTE: "FAIR" INDICATES FEW OR NO CLOUDS BELOW 12,000 FEET WITH NO
SIGNIFICANT WEATHER AND/OR OBSTRUCTIONS TO VISISBILITY.

NORTHEAST MONTANA


CITY           SKY/WX    TMP DP  RH WIND       PRES   REMARKS
GLASGOW        CLOUDY     1  -5  75 E7        30.42F
PLENTYWOOD       N/A     -3  -8  79 SE2         N/A
WOLF POINT     CLEAR     -1  -9  68 E9        30.50F
JORDAN           N/A      4  -1  80 E9        30.35F
WINNETT          N/A      8   3  80 SE6         N/A
SIDNEY         NOT AVBL
GLENDIVE       CLOUDY    -6 -10  83 E6        30.45S
MALTA            N/A      5   0  79 E7          N/A
SCOBEY           N/A     -1 -13  56 CALM      30.38F

FORT PECK REPORTS


CITY           SKY/WX    TMP DP  RH WIND       PRES   REMARKS
FORT PECK        N/A      0  -3  87 E12         N/A  WCI -17
THE PINES        N/A      3  -2  79 E2          N/A

SOUTHEAST MONTANA


CITY           SKY/WX    TMP DP  RH WIND       PRES   REMARKS
BILLINGS       CLOUDY     4  -1  80 NE6       30.20F
MILES CITY     CLOUDY     4  -3  73 NE9       30.37F
BAKER          CLOUDY     0  -6  76 E9        30.37S
LIVINGSTON     CLOUDY     6  -1  73 E9        30.07F

CENTRAL MONTANA


CITY           SKY/WX    TMP DP  RH WIND       PRES   REMARKS
HAVRE          CLOUDY     5  -2  72 E10       30.30F WCI -10
LEWISTOWN      FLURRIES   2  -3  80 E10       30.11F WCI -14
GREAT FALLS    CLOUDY     0  -7  72 E5        30.16S
CUT BANK       PTCLDY    -1  -7  75 SE9       30.13F
HELENA         CLOUDY     6  -3  66 CALM      30.11F
BUTTE          CLOUDY    18  10  71 CALM      29.95F
BOZEMAN        CLOUDY     9   1  70 CALM      30.07F

WESTERN MONTANA


CITY           SKY/WX    TMP DP  RH WIND       PRES   REMARKS
MISSOULA       LGT SNOW  16  11  80 NW3       30.09F
KALISPELL      NOT AVBL

NORTH DAKOTA


CITY           SKY/WX    TMP DP  RH WIND       PRES   REMARKS
WILLISTON      CLOUDY    -5 -13  68 NE3       30.53S
DICKINSON      CLOUDY    -8 -13  78 CALM      30.41S
MINOT          CLOUDY   -11 -17  75 NW10      30.52F WCI -30
BISMARCK       CLOUDY    -4 -10  75 NW8       30.54S

SOUTHERN SASKATCHEWAN


CITY           SKY/WX    TMP DP  RH WIND       PRES   REMARKS
REGINA         PTCLDY    -9 -15  77 W3        30.50F
MOOSE JAW      FLURRIES  -6 -15  65 CALM      30.51F
ESTEVAN        PTCLDY   -15 -20  76 W6        30.51F
SWIFT CURRENT  CLOUDY    -6  -9  84 E8        30.35F





USA.gov is the U.S. government's official web portal to all federal, state and local government web resources and services.